Showing default

FOSSASAT2E21, 64536

Orbit data source: Space-Track

FOSSASAT2E21, 64536 is a payload satellite owned by WiseKey (ES) in SSO that was launched on Mon, 23 Jun 2025 UTC via an FALCON 9 launch vehicle from the Air Force Western Test Range (AFWTR). Payload-class satellites include a variety of spacecraft equipped with specific instruments for various scientific and technological missions. These include communications satellites like Starlink; space stations such as the ISS; scientific satellites like the Hubble; Earth observation satellites from companies like Planet Labs, Umbra, and HawkEye 360; GPS; miniature CubeSats for education and research; and military/defense satellites.

Loading next visibility...
Identifier
64536, 2025-135J
Orbit
SSO
Country
Flag of ESES / SPN
Related business
Manufacturer
Fossa Systems
Mission
Operational Commercial Communications
Bus & Motor
CUBESAT 3U, Unknown motor
Mass
4 kg wet, 4 kg dry
Launch date (UTC)
2025-06-23 (1 year ago)
Launch vehicle
FALCON 9
Launch site
Air Force Western Test Range (AFWTR)
Object type
Payload
Rocket body
Debris
Shape & HBR
Box + 2 Pan, 0.2 m
Radar Cross Section
0.035 m², Medium (>0.1 m² and < 1m²)

Expand to show TLE details & history
Last TLE update: 5 hours ago

TLE from 5 hours ago
0 FOSSASAT2E21
1 64536U 25135J   26221.86118907  .00001423  00000-0  68819-4 0  9999
2 64536  97.4686 335.6353 0004373  20.9068 339.2345 15.20224153 62974
Epoch: 2026-08-09T20:40Z
TLE epoch observation values (Epoch: 2026-08-09T20:40:06.735Z)
Latitude
-0.00005°
Longitude
67.25513°
Altitude
505.438 km
Speed
7.613 km/s
True Right ascension
22h 22m 32s
True Declination
0° 00' 00"
Sunlit
Object was in full shadow at epoch
Visualization orbit readout
Latitude
Unknown
Longitude
Unknown
Altitude
Unknown
Speed
Unknown
Apparent Right ascension
Unknown
Apparent Declination
Unknown
Sunlit
N/A
Visualization observer readout
Local Sidereal Time
15:31:17
Azimuth
Unknown
Elevation
Unknown
Doppler factor
Unknown
Orbital elements
Apogee altitude
505.141 km
Perigee altitude
499.123 km
Semi-major axis
6,880.269 km
Eccentricity
0.00044
Inclination
97.4686°
RAAN
335.6353°
Arg. of periapsis
20.9068°
True anomaly
339.21672°
Mean anomaly
339.2345°
Eccentric anomaly
339.22561°
Mean motion
3.80308 °/min
Orbital period
94.66 mins
BSTAR
0.000068819
Loading maneuver chart data...
Computing Atmospheric mass density...
Loading historical data...
Loading historical data...
Loading historical data...
Loading historical data...
Loading historical data...
Loading historical data...
Loading historical data...

Documentation

Showing up to 5 results
|